Home > Weather > Canton > Past weeks

Flag for U.S.A. Weather for the Past 2 Weeks in Canton, Ohio, U.S.A.

Now
31 °F

Ice fog.


Feels Like: 25 °F
Forecast: 27 / 34 °F
Wind: 6 mph from Southwest

Location: Akron-Canton Regional Airport

Current Time: Feb 8, 2016 at 9:26:15 PM

Latest Report: Feb 8, 2016 at 7:51 PM


Visibility: 6 mi

Pressure: 29.63 "Hg

Humidity: 92%

Dew point: 29 °F

Location of CantonLocation

Historic Weather in Canton — Graph

°F

Canton Temperature Yesterday

Maximum temperature yesterday: 50 °F (at 1:51 PM)
Minimum temperature yesterday: 25 °F (at 5:51 AM)
Average temperature yesterday: 37 °F

High & Low Weather Summary for the Past Weeks

 TemperatureHumidityPressure
High62 °F (Feb 3, 1:51 PM)96% (Feb 8, 12:51 PM)30.41 "Hg (Feb 8, 12:51 PM)
Low19 °F (Jan 29, 10:51 PM)33% (Jan 25, 2:51 PM)29.56 "Hg (Feb 8, 2:51 PM)
Average37 °F65%29.98 "Hg
* Reported Jan 24 7:51 PM — Feb 8 7:51 PM, Canton, Weather by CustomWeather, © 2016

Note: Actual official high and low records may vary slightly from our data, if they occured in-between our weather recording intervals... More about our weather records

Advertising

Canton Weather History for the Previous 24 Hours

 ConditionsComfort  
Time TempWeatherWind HumidityBarometerVisibility
7:51 PM
Mon, Feb 8
31 °FIce fog.6 mph92%29.63 "Hg6 mi
6:51 PM31 °FPassing clouds.5 mph89%29.63 "Hg8 mi
5:51 PM33 °FPartly cloudy.6 mph88%29.61 "Hg7 mi
4:51 PM33 °FLight snow. Fog.12 mph88%29.59 "Hg3 mi
3:51 PM33 °FLight snow. Fog.8 mph92%29.58 "Hg1 mi
2:51 PM34 °FLight snow. Fog.8 mph88%29.56 "Hg1 mi
1:51 PM33 °FLight snow. Fog.6 mph92%29.57 "Hg1 mi
12:51 PM33 °FLight snow. Fog.5 mph96%29.58 "Hg1 mi
11:51 AM33 °FLight snow. Dense fog.7 mph88%29.61 "Hg1 mi
10:51 AM38 °FMostly cloudy.9 mph68%29.61 "Hg10 mi
9:51 AM39 °FOvercast.5 mph60%29.62 "Hg10 mi
8:51 AM38 °FOvercast.8 mph60%29.63 "Hg10 mi
7:51 AM37 °FLight rain. Mostly cloudy.6 mph60%29.64 "Hg9 mi
6:51 AM36 °FMostly cloudy.5 mph59%29.65 "Hg10 mi
5:51 AM37 °FMostly cloudy.8 mph57%29.67 "Hg10 mi
4:51 AM36 °FOvercast.7 mph57%29.67 "Hg10 mi
3:51 AM37 °FOvercast.8 mph57%29.69 "Hg10 mi
2:51 AM38 °FOvercast.8 mph55%29.71 "Hg10 mi
1:51 AM39 °FOvercast.8 mph53%29.74 "Hg10 mi
12:51 AM39 °FOvercast.9 mph55%29.77 "Hg10 mi
11:51 PM
Sun, Feb 7
39 °FMostly cloudy.9 mph55%29.80 "Hg10 mi
10:51 PM40 °FOvercast.9 mph53%29.82 "Hg10 mi
9:51 PM39 °FOvercast.9 mph57%29.85 "Hg10 mi
Weather by CustomWeather, © 2016

See weather overviewHow to use our weather pages